• In Belarus
  • List of Countries
  • For 7 days
  • Water Temperature
  • Weather Map
  • Weather Widgets
  • user-avatar
    Login

    Hourly Weather Liverpool

    Today, 17 January, Friday

    Time Temperature Precipitation Wind Pressure Humidity
    00:00 +7°C° 0 mm 3 mps 752 mmHg 87%
    01:00 +6°C° 0 mm 4 mps 752 mmHg 89%
    02:00 +6°C° 0 mm 4 mps 752 mmHg 90%
    03:00 +5°C° 0 mm 4 mps 752 mmHg 91%
    04:00 +5°C° 0.1 mm 4 mps 752 mmHg 91%
    05:00 +5°C° 0.1 mm 4 mps 752 mmHg 91%
    06:00 +6°C° 0 mm 2 mps 752 mmHg 93%
    07:00 +5°C° 1.1 mm 3 mps 752 mmHg 93%
    08:00 +5°C° 1.1 mm 4 mps 753 mmHg 93%
    09:00 +3°C° 1.1 mm 5 mps 753 mmHg 93%
    10:00 +5°C° 0.8 mm 5 mps 754 mmHg 87%
    11:00 +5°C° 0.8 mm 5 mps 755 mmHg 81%
    12:00 +4°C° 0.8 mm 6 mps 756 mmHg 75%
    13:00 +4°C° 0 mm 6 mps 756 mmHg 75%
    14:00 +5°C° 0 mm 5 mps 756 mmHg 74%
    15:00 +5°C° 0 mm 5 mps 757 mmHg 74%
    16:00 +5°C° 0 mm 5 mps 757 mmHg 76%
    17:00 +3°C° 0 mm 5 mps 758 mmHg 78%
    18:00 +2°C° 0 mm 5 mps 759 mmHg 81%
    19:00 +2°C° 0.1 mm 5 mps 759 mmHg 82%
    20:00 +3°C° 0.1 mm 5 mps 760 mmHg 84%
    21:00 +3°C° 0.1 mm 5 mps 761 mmHg 86%
    22:00 +3°C° 0.1 mm 6 mps 762 mmHg 82%
    23:00 +3°C° 0.1 mm 6 mps 762 mmHg 78%

    Tomorrow, 18 January, Saturday

    Time Temperature Precipitation Wind Pressure Humidity
    00:00 +3°C° 0.1 mm 6 mps 763 mmHg 74%
    01:00 +3°C° 0 mm 6 mps 764 mmHg 75%
    02:00 +2°C° 0 mm 5 mps 764 mmHg 75%
    03:00 +2°C° 0 mm 5 mps 765 mmHg 76%
    04:00 +3°C° 0 mm 4 mps 766 mmHg 77%
    05:00 +1°C° 0 mm 4 mps 766 mmHg 79%
    06:00 +1°C° 0 mm 4 mps 767 mmHg 80%
    07:00 +1°C° 0 mm 4 mps 767 mmHg 81%
    08:00 +1°C° 0 mm 4 mps 768 mmHg 82%
    09:00 +2°C° 0 mm 3 mps 769 mmHg 84%
    10:00 +3°C° 0 mm 4 mps 769 mmHg 79%
    11:00 +4°C° 0 mm 4 mps 770 mmHg 74%
    12:00 +5°C° 0 mm 4 mps 770 mmHg 70%
    13:00 +5°C° 0 mm 5 mps 771 mmHg 71%
    14:00 +5°C° 0 mm 5 mps 771 mmHg 72%
    15:00 +5°C° 0 mm 5 mps 772 mmHg 73%
    16:00 +5°C° 0 mm 5 mps 772 mmHg 76%
    17:00 +4°C° 0 mm 4 mps 773 mmHg 80%
    18:00 +3°C° 0 mm 4 mps 774 mmHg 83%
    19:00 +3°C° 0 mm 4 mps 774 mmHg 83%
    20:00 +3°C° 0 mm 3 mps 775 mmHg 83%
    21:00 +3°C° 0 mm 3 mps 776 mmHg 83%
    22:00 +3°C° 0 mm 3 mps 776 mmHg 83%
    23:00 +3°C° 0 mm 3 mps 777 mmHg 83%

    Day after tomorrow, 19 January, Sunday

    Time Temperature Precipitation Wind Pressure Humidity
    00:00 +3°C° 0 mm 3 mps 778 mmHg 84%
    01:00 +3°C° 0 mm 2 mps 778 mmHg 84%
    02:00 +3°C° 0 mm 2 mps 779 mmHg 84%
    03:00 +3°C° 0 mm 2 mps 779 mmHg 84%
    04:00 +3°C° 0 mm 1 mps 780 mmHg 85%
    05:00 +3°C° 0 mm 1 mps 780 mmHg 85%
    06:00 +3°C° 0 mm 1 mps 781 mmHg 85%
    07:00 +3°C° 0 mm 1 mps 781 mmHg 85%
    08:00 +3°C° 0 mm 1 mps 782 mmHg 86%
    09:00 +3°C° 0 mm 1 mps 783 mmHg 86%
    10:00 +4°C° 0 mm 1 mps 783 mmHg 83%
    11:00 +6°C° 0 mm 1 mps 783 mmHg 80%
    12:00 +7°C° 0 mm 1 mps 783 mmHg 76%
    13:00 +7°C° 0 mm 1 mps 783 mmHg 78%
    14:00 +7°C° 0 mm 1 mps 783 mmHg 79%
    15:00 +6°C° 0 mm 2 mps 783 mmHg 80%
    16:00 +5°C° 0 mm 2 mps 784 mmHg 83%
    17:00 +4°C° 0 mm 2 mps 784 mmHg 86%
    18:00 +3°C° 0 mm 2 mps 784 mmHg 89%
    19:00 +3°C° 0 mm 2 mps 784 mmHg 90%
    20:00 +3°C° 0 mm 2 mps 784 mmHg 90%
    21:00 +3°C° 0 mm 2 mps 784 mmHg 90%
    22:00 +2°C° 0 mm 2 mps 785 mmHg 89%
    23:00 +2°C° 0 mm 2 mps 785 mmHg 87%

    20 January, Monday

    Time Temperature Precipitation Wind Pressure Humidity
    00:00 +2°C° 0 mm 2 mps 785 mmHg 86%
    01:00 +2°C° 0 mm 2 mps 785 mmHg 85%
    02:00 +2°C° 0 mm 2 mps 785 mmHg 83%
    03:00 +2°C° 0 mm 2 mps 785 mmHg 82%
    04:00 +2°C° 0 mm 2 mps 784 mmHg 82%
    05:00 +2°C° 0 mm 2 mps 784 mmHg 81%
    06:00 +2°C° 0 mm 2 mps 784 mmHg 81%
    07:00 +3°C° 0 mm 1 mps 784 mmHg 80%
    08:00 +3°C° 0 mm 1 mps 784 mmHg 80%
    09:00 +3°C° 0 mm 1 mps 784 mmHg 79%
    10:00 +4°C° 0 mm 1 mps 784 mmHg 75%
    11:00 +6°C° 0 mm 1 mps 784 mmHg 71%
    12:00 +7°C° 0 mm 1 mps 784 mmHg 68%
    13:00 +7°C° 0 mm 1 mps 784 mmHg 70%
    14:00 +7°C° 0 mm 1 mps 783 mmHg 72%
    15:00 +7°C° 0 mm 1 mps 783 mmHg 74%
    16:00 +6°C° 0 mm 1 mps 783 mmHg 77%
    17:00 +5°C° 0 mm 1 mps 783 mmHg 81%
    18:00 +4°C° 0 mm 1 mps 783 mmHg 84%
    19:00 +3°C° 0 mm 1 mps 783 mmHg 84%
    20:00 +3°C° 0 mm 1 mps 783 mmHg 84%
    21:00 +3°C° 0 mm 1 mps 783 mmHg 85%
    22:00 +3°C° 0 mm 1 mps 782 mmHg 84%
    23:00 +3°C° 0 mm 1 mps 782 mmHg 84%

    21 January, Tuesday

    Time Temperature Precipitation Wind Pressure Humidity
    00:00 +3°C° 0 mm 1 mps 782 mmHg 84%
    01:00 +3°C° 0 mm 1 mps 782 mmHg 82%
    02:00 +3°C° 0 mm 1 mps 781 mmHg 81%
    03:00 +2°C° 0 mm 1 mps 781 mmHg 80%
    04:00 +2°C° 0 mm 1 mps 781 mmHg 79%
    05:00 +2°C° 0 mm 1 mps 781 mmHg 78%
    06:00 +2°C° 0 mm 1 mps 780 mmHg 77%
    07:00 +2°C° 0 mm 1 mps 780 mmHg 77%
    08:00 +3°C° 0 mm 1 mps 780 mmHg 77%
    09:00 +3°C° 0 mm 1 mps 781 mmHg 77%
    10:00 +3°C° 0 mm 2 mps 780 mmHg 76%
    11:00 +4°C° 0 mm 2 mps 780 mmHg 76%
    12:00 +5°C° 0 mm 2 mps 780 mmHg 76%
    13:00 +5°C° 0 mm 2 mps 780 mmHg 79%
    14:00 +5°C° 0 mm 2 mps 779 mmHg 81%
    15:00 +5°C° 0 mm 2 mps 779 mmHg 84%
    16:00 +5°C° 0 mm 2 mps 779 mmHg 88%
    17:00 +4°C° 0 mm 2 mps 779 mmHg 91%
    18:00 +3°C° 0 mm 2 mps 779 mmHg 94%
    19:00 +3°C° 0 mm 2 mps 779 mmHg 94%
    20:00 +3°C° 0 mm 2 mps 779 mmHg 94%
    21:00 +4°C° 0 mm 1 mps 779 mmHg 94%
    22:00 +4°C° 0 mm 1 mps 779 mmHg 94%
    23:00 +4°C° 0 mm 1 mps 779 mmHg 94%

    22 January, Wednesday

    Time Temperature Precipitation Wind Pressure Humidity
    00:00 +4°C° 0 mm 1 mps 779 mmHg 94%
    01:00 +3°C° 0 mm 1 mps 778 mmHg 94%
    02:00 +3°C° 0 mm 1 mps 778 mmHg 94%
    03:00 +3°C° 0 mm 1 mps 777 mmHg 94%
    04:00 +3°C° 0 mm 1 mps 777 mmHg 94%
    05:00 +3°C° 0 mm 1 mps 777 mmHg 94%
    06:00 +3°C° 0 mm 1 mps 777 mmHg 95%
    07:00 +3°C° 0 mm 1 mps 777 mmHg 95%
    08:00 +3°C° 0 mm 1 mps 777 mmHg 95%
    09:00 +3°C° 0 mm 1 mps 777 mmHg 95%
    10:00 +5°C° 0 mm 1 mps 777 mmHg 92%
    11:00 +6°C° 0 mm 1 mps 777 mmHg 89%
    12:00 +7°C° 0 mm 1 mps 777 mmHg 85%
    13:00 +7°C° 0 mm 1 mps 776 mmHg 86%
    14:00 +7°C° 0 mm 1 mps 776 mmHg 87%
    15:00 +7°C° 0 mm 1 mps 775 mmHg 88%
    16:00 +6°C° 0 mm 1 mps 775 mmHg 90%
    17:00 +5°C° 0 mm 1 mps 775 mmHg 92%
    18:00 +4°C° 0 mm 1 mps 775 mmHg 94%
    19:00 +3°C° 0 mm 0 mps 775 mmHg 95%
    20:00 +3°C° 0 mm 0 mps 775 mmHg 95%
    21:00 +3°C° 0 mm 0 mps 774 mmHg 95%
    22:00 +3°C° 0 mm 0 mps 774 mmHg 95%
    23:00 +3°C° 0 mm 0 mps 774 mmHg 96%
    Show more